# Mixing ratio of CO2 (xCO2) in dry air measured onboard R/V Kaiyo of the Japan Marine Sciece and Technology Center (JAMSTEC).,,,,,,,,,,,,,,,,,,,,,,
"# Version 2.0; 29 Feb, 2008.",,,,,,,,,,,,,,,,,,,,,,
# Measured by Meteorological Research Institute. ,,,,,,,,,,,,,,,,,,,,,,
# PI : M. Ishii,,,,,,,,,,,,,,,,,,,,,,
# Concetrarion scale = MRI87,,,,,,,,,,,,,,,,,,,,,,
# Date and Time = UTC,,,,,,,,,,,,,,,,,,,,,,
Ship,Cruise,Serial No.,Date,,,Time,,Latitude,Longitude,xCO2_Air,F,xCO2_Sea,F,Wind_Dir,Wind_Spd,Atm_Prs,Atm_Tmp.,SST,F,SSS,F,pH2O
,,,Year,Month,Day,Hour,Min.,Deg.,Deg.,ppm,,ppm,,Deg.,m/s,hPa,deg.C,deg.C,,,,hPa
Kaiyo,9714,1,1997,12,7,10,27,11.642,144.45,364.55,2,-9.99,9,-99,-9.9,1010.1,-9.9,27.8,2,34.2,2,36.7
Kaiyo,9714,2,1997,12,7,10,39,11.597,144.447,-9.99,9,362.66,2,-99,-9.9,1010.3,-9.9,27.98,2,34.194,2,37
Kaiyo,9714,3,1997,12,7,10,52,11.553,144.443,-9.99,9,361.05,2,-99,-9.9,1010.3,-9.9,28.02,2,34.2,2,37.1
Kaiyo,9714,4,1997,12,7,11,11,11.489,144.438,-9.99,9,359.81,2,-99,-9.9,1010.3,-9.9,28.06,2,34.244,2,37.2
Kaiyo,9714,5,1997,12,7,11,23,11.445,144.434,-9.99,9,361.18,2,-99,-9.9,1010.3,-9.9,28.07,2,34.21,2,37.2
Kaiyo,9714,6,1997,12,7,11,57,11.329,144.423,364.61,2,-9.99,9,-99,-9.9,1010.2,-9.9,28.09,2,34.229,2,37.3
Kaiyo,9714,7,1997,12,7,12,9,11.286,144.418,-9.99,9,359.52,2,-99,-9.9,1010.2,-9.9,28.08,2,34.254,2,37.3
Kaiyo,9714,8,1997,12,7,12,22,11.242,144.415,-9.99,9,360.05,2,-99,-9.9,1010.2,-9.9,28.11,2,34.242,2,37.3
Kaiyo,9714,9,1997,12,7,12,41,11.181,144.409,-9.99,9,360.18,2,-99,-9.9,1010.2,-9.9,28.13,2,34.212,2,37.4
Kaiyo,9714,10,1997,12,7,12,53,11.138,144.405,-9.99,9,360.66,2,-99,-9.9,1010.2,-9.9,28.15,2,34.187,2,37.4
Kaiyo,9714,11,1997,12,7,13,27,11.028,144.394,364.55,2,-9.99,9,-99,-9.9,1009.8,-9.9,28.19,2,34.09,2,37.5
Kaiyo,9714,12,1997,12,7,13,39,10.987,144.389,-9.99,9,359.37,2,-99,-9.9,1009.8,-9.9,28.16,2,34.053,2,37.4
Kaiyo,9714,13,1997,12,7,13,52,10.944,144.385,-9.99,9,359.76,2,-99,-9.9,1009.8,-9.9,28.19,2,34.027,2,37.5
Kaiyo,9714,14,1997,12,7,14,11,10.883,144.379,-9.99,9,359.97,2,-99,-9.9,1009.7,-9.9,28.17,2,34.008,2,37.5
Kaiyo,9714,15,1997,12,7,14,23,10.838,144.375,-9.99,9,360.11,2,-99,-9.9,1009.6,-9.9,28.12,2,34.018,2,37.3
Kaiyo,9714,16,1997,12,7,14,57,10.721,144.361,365.06,2,-9.99,9,-99,-9.9,1009.4,-9.9,28.1,2,33.923,2,37.3
Kaiyo,9714,17,1997,12,7,15,9,10.677,144.357,-9.99,9,360.17,2,-99,-9.9,1009.3,-9.9,28.16,2,33.917,2,37.4
Kaiyo,9714,18,1997,12,7,15,22,10.633,144.354,-9.99,9,361.6,2,-99,-9.9,1009,-9.9,28.19,2,33.905,2,37.5
Kaiyo,9714,19,1997,12,7,15,41,10.569,144.35,-9.99,9,361.42,2,-99,-9.9,1008.8,-9.9,28.17,2,33.886,2,37.5
Kaiyo,9714,20,1997,12,7,15,53,10.525,144.346,-9.99,9,358.61,2,-99,-9.9,1008.6,-9.9,28.15,2,33.884,2,37.4
Kaiyo,9714,21,1997,12,7,16,27,10.408,144.34,364.37,2,-9.99,9,-99,-9.9,1008.1,-9.9,28.18,2,33.882,2,37.5
Kaiyo,9714,22,1997,12,7,16,39,10.365,144.344,-9.99,9,360.28,2,-99,-9.9,1007.8,-9.9,28.14,2,33.914,2,37.4
Kaiyo,9714,23,1997,12,7,16,52,10.322,144.355,-9.99,9,362.67,2,-99,-9.9,1007.8,-9.9,28.32,2,33.911,2,37.8
Kaiyo,9714,24,1997,12,7,17,11,10.259,144.346,-9.99,9,364.95,2,-99,-9.9,1007.8,-9.9,28.29,2,33.909,2,37.7
Kaiyo,9714,25,1997,12,7,17,23,10.214,144.339,-9.99,9,367.93,2,-99,-9.9,1007.8,-9.9,28.28,2,33.928,2,37.7
Kaiyo,9714,26,1997,12,7,17,57,10.1,144.319,364.5,2,-9.99,9,-99,-9.9,1007.8,-9.9,28.33,2,33.943,2,37.8
Kaiyo,9714,27,1997,12,7,18,9,10.056,144.313,-9.99,9,369.57,2,-99,-9.9,1007.9,-9.9,28.31,2,33.945,2,37.8
Kaiyo,9714,28,1997,12,7,18,22,10.012,144.309,-9.99,9,370.42,2,-99,-9.9,1007.9,-9.9,28.34,2,33.943,2,37.8
Kaiyo,9714,29,1997,12,7,18,41,9.951,144.302,-9.99,9,365.4,2,-99,-9.9,1008,-9.9,28.33,2,33.924,2,37.8
Kaiyo,9714,30,1997,12,7,18,53,9.908,144.298,-9.99,9,374.04,2,-99,-9.9,1008,-9.9,28.3,2,33.922,2,37.7
Kaiyo,9714,31,1997,12,7,19,27,9.797,144.288,363.96,2,-9.99,9,-99,-9.9,1008.2,-9.9,28.28,2,33.951,2,37.7
Kaiyo,9714,32,1997,12,7,19,39,9.755,144.283,-9.99,9,362.21,2,-99,-9.9,1008.2,-9.9,28.28,2,33.905,2,37.7
Kaiyo,9714,33,1997,12,7,19,52,9.712,144.278,-9.99,9,371.18,2,-99,-9.9,1008.3,-9.9,28.33,2,33.9,2,37.8
Kaiyo,9714,34,1997,12,7,20,11,9.651,144.272,-9.99,9,370.5,2,-99,-9.9,1008.4,-9.9,28.28,2,33.893,2,37.7
Kaiyo,9714,35,1997,12,7,20,23,9.609,144.267,-9.99,9,370.82,2,-99,-9.9,1008.4,-9.9,28.25,2,33.9,2,37.6
Kaiyo,9714,36,1997,12,7,20,57,9.499,144.257,364.41,2,-9.99,9,-99,-9.9,1008.8,-9.9,28.27,2,33.925,2,37.7
Kaiyo,9714,37,1997,12,7,21,9,9.457,144.255,-9.99,9,370.53,2,-99,-9.9,1009.1,-9.9,28.28,2,33.941,2,37.7
Kaiyo,9714,38,1997,12,7,21,22,9.416,144.252,-9.99,9,371.23,2,-99,-9.9,1009.3,-9.9,28.27,2,33.948,2,37.7
Kaiyo,9714,39,1997,12,7,21,41,9.356,144.248,-9.99,9,373.18,2,-99,-9.9,1009.5,-9.9,28.28,2,33.948,2,37.7
Kaiyo,9714,40,1997,12,7,21,53,9.314,144.245,-9.99,9,373.47,2,-99,-9.9,1009.7,-9.9,28.27,2,33.949,2,37.7
Kaiyo,9714,41,1997,12,7,22,27,9.2,144.235,364.68,2,-9.99,9,-99,-9.9,1010.2,-9.9,28.29,2,33.913,2,37.7
Kaiyo,9714,42,1997,12,7,22,39,9.156,144.232,-9.99,9,374.35,2,-99,-9.9,1010.3,-9.9,28.3,2,33.899,2,37.7
Kaiyo,9714,43,1997,12,7,22,52,9.113,144.229,-9.99,9,374.22,2,-99,-9.9,1010.2,-9.9,28.35,2,33.907,2,37.9
Kaiyo,9714,44,1997,12,7,23,11,9.052,144.225,-9.99,9,372.5,2,-99,-9.9,1010.2,-9.9,28.41,2,33.921,2,38
Kaiyo,9714,45,1997,12,7,23,23,9.01,144.222,-9.99,9,372.8,2,-99,-9.9,1010.2,-9.9,28.4,2,33.941,2,38
Kaiyo,9714,46,1997,12,7,23,57,8.9,144.213,364.67,2,-9.99,9,-99,-9.9,1009.9,-9.9,28.49,2,33.933,2,38.2
Kaiyo,9714,47,1997,12,8,0,9,8.86,144.21,-9.99,9,371.68,2,-99,-9.9,1009.7,-9.9,28.52,2,33.905,2,38.2
Kaiyo,9714,48,1997,12,8,0,22,8.819,144.206,-9.99,9,372.15,2,-99,-9.9,1009.7,-9.9,28.49,2,33.897,2,38.2
Kaiyo,9714,49,1997,12,8,0,41,8.76,144.202,-9.99,9,368.84,2,-99,-9.9,1009.5,-9.9,28.48,2,33.888,2,38.1
Kaiyo,9714,50,1997,12,8,0,53,8.719,144.199,-9.99,9,366.97,2,-99,-9.9,1009.4,-9.9,28.52,2,33.883,2,38.2
Kaiyo,9714,51,1997,12,8,1,27,8.609,144.188,364.66,2,-9.99,9,-99,-9.9,1009.2,-9.9,28.61,2,33.932,2,38.4
Kaiyo,9714,52,1997,12,8,1,39,8.567,144.184,-9.99,9,368.05,2,-99,-9.9,1009,-9.9,28.67,2,33.904,2,38.6
Kaiyo,9714,53,1997,12,8,1,52,8.525,144.18,-9.99,9,368.31,2,-99,-9.9,1008.9,-9.9,28.67,2,33.876,2,38.6
Kaiyo,9714,54,1997,12,8,2,11,8.464,144.173,-9.99,9,368.06,2,-99,-9.9,1008.6,-9.9,28.73,2,33.876,2,38.7
Kaiyo,9714,55,1997,12,8,2,23,8.421,144.169,-9.99,9,368.4,2,-99,-9.9,1008.5,-9.9,28.73,2,33.875,2,38.7
Kaiyo,9714,56,1997,12,8,2,57,8.311,144.159,364.34,2,-9.99,9,-99,-9.9,1007.9,-9.9,28.82,2,33.829,2,38.9
Kaiyo,9714,57,1997,12,8,3,9,8.269,144.155,-9.99,9,370.89,2,-99,-9.9,1007.7,-9.9,28.84,2,33.832,2,38.9
Kaiyo,9714,58,1997,12,8,3,22,8.228,144.152,-9.99,9,366.03,2,-99,-9.9,1007.4,-9.9,28.85,2,33.831,2,39
Kaiyo,9714,59,1997,12,8,3,41,8.167,144.147,-9.99,9,368.84,2,-99,-9.9,1007.3,-9.9,28.87,2,33.814,2,39
Kaiyo,9714,60,1997,12,8,3,53,8.126,144.144,-9.99,9,370.44,2,-99,-9.9,1007.2,-9.9,28.84,2,33.821,2,38.9
Kaiyo,9714,61,1997,12,8,4,27,8.014,144.134,364.56,2,-9.99,9,-99,-9.9,1006.9,-9.9,28.87,2,33.827,2,39
Kaiyo,9714,62,1997,12,8,4,39,7.972,144.131,-9.99,9,370.19,2,-99,-9.9,1006.7,-9.9,28.9,2,33.829,2,39.1
Kaiyo,9714,63,1997,12,8,4,52,7.928,144.127,-9.99,9,372.04,2,-99,-9.9,1006.7,-9.9,28.93,2,33.784,2,39.2
Kaiyo,9714,64,1997,12,8,5,11,7.865,144.121,-9.99,9,370.96,2,-99,-9.9,1006.7,-9.9,28.94,2,33.803,2,39.2
Kaiyo,9714,65,1997,12,8,5,23,7.822,144.117,-9.99,9,370.01,2,-99,-9.9,1006.7,-9.9,28.93,2,33.814,2,39.2
Kaiyo,9714,66,1997,12,8,5,57,7.708,144.105,364.11,2,-9.99,9,-99,-9.9,1006.8,-9.9,28.81,2,33.807,2,38.9
Kaiyo,9714,67,1997,12,8,6,9,7.665,144.103,-9.99,9,369.34,2,-99,-9.9,1006.8,-9.9,28.85,2,33.773,2,39
Kaiyo,9714,68,1997,12,8,6,22,7.62,144.1,-9.99,9,370.19,2,-99,-9.9,1006.9,-9.9,28.94,2,33.765,2,39.2
Kaiyo,9714,69,1997,12,8,6,41,7.556,144.095,-9.99,9,371.2,2,-99,-9.9,1007,-9.9,28.88,2,33.763,2,39
Kaiyo,9714,70,1997,12,8,6,53,7.511,144.092,-9.99,9,371.07,2,-99,-9.9,1007.1,-9.9,28.87,2,33.741,2,39
Kaiyo,9714,71,1997,12,8,7,27,7.398,144.083,364.77,2,-9.99,9,-99,-9.9,1007.5,-9.9,28.87,2,33.747,2,39
Kaiyo,9714,72,1997,12,8,7,39,7.354,144.079,-9.99,9,367.31,2,-99,-9.9,1007.7,-9.9,28.89,2,33.736,2,39.1
Kaiyo,9714,73,1997,12,8,7,52,7.311,144.075,-9.99,9,368.03,2,-99,-9.9,1007.9,-9.9,28.83,2,33.714,2,38.9
Kaiyo,9714,74,1997,12,8,8,11,7.249,144.07,-9.99,9,368.2,2,-99,-9.9,1008.1,-9.9,28.8,2,33.685,2,38.9
Kaiyo,9714,75,1997,12,8,8,23,7.206,144.066,-9.99,9,368.67,2,-99,-9.9,1008.4,-9.9,28.77,2,33.691,2,38.8
Kaiyo,9714,76,1997,12,8,8,57,7.094,144.057,364.68,2,-9.99,9,-99,-9.9,1008.6,-9.9,28.86,2,33.658,2,39
Kaiyo,9714,77,1997,12,8,9,9,7.051,144.053,-9.99,9,365.53,2,-99,-9.9,1008.8,-9.9,28.86,2,33.666,2,39
Kaiyo,9714,78,1997,12,8,9,22,7.008,144.049,-9.99,9,368.39,2,-99,-9.9,1008.9,-9.9,28.88,2,33.657,2,39
Kaiyo,9714,79,1997,12,8,9,41,6.945,144.044,-9.99,9,367.6,2,-99,-9.9,1008.9,-9.9,28.86,2,33.657,2,39
Kaiyo,9714,80,1997,12,8,9,53,6.902,144.041,-9.99,9,367.24,2,-99,-9.9,1009.1,-9.9,28.81,2,33.651,2,38.9
Kaiyo,9714,81,1997,12,8,10,27,6.788,144.031,364.38,2,-9.99,9,-99,-9.9,1009.5,-9.9,28.81,2,33.648,2,38.9
Kaiyo,9714,82,1997,12,8,10,39,6.744,144.026,-9.99,9,366.54,2,-99,-9.9,1009.6,-9.9,28.8,2,33.594,2,38.9
Kaiyo,9714,83,1997,12,8,10,52,6.702,144.023,-9.99,9,366.98,2,-99,-9.9,1009.6,-9.9,28.73,2,33.614,2,38.7
Kaiyo,9714,84,1997,12,8,11,11,6.64,144.018,-9.99,9,366.56,2,-99,-9.9,1009.8,-9.9,28.77,2,33.599,2,38.8
Kaiyo,9714,85,1997,12,8,11,23,6.597,144.015,-9.99,9,368.54,2,-99,-9.9,1009.9,-9.9,28.78,2,33.605,2,38.8
Kaiyo,9714,86,1997,12,8,11,57,6.484,144.004,365.12,2,-9.99,9,-99,-9.9,1010,-9.9,28.86,2,33.721,2,39
Kaiyo,9714,87,1997,12,8,12,9,6.441,143.999,-9.99,9,366.84,2,-99,-9.9,1010,-9.9,28.86,2,33.746,2,39
Kaiyo,9714,88,1997,12,8,12,22,6.399,143.994,-9.99,9,369.42,2,-99,-9.9,1010,-9.9,28.81,2,33.769,2,38.9
Kaiyo,9714,89,1997,12,8,12,41,6.337,143.987,-9.99,9,368.9,2,-99,-9.9,1010.1,-9.9,28.72,2,33.802,2,38.7
Kaiyo,9714,90,1997,12,8,12,53,6.294,143.981,-9.99,9,371.87,2,-99,-9.9,1010,-9.9,28.8,2,33.823,2,38.9
Kaiyo,9714,91,1997,12,8,13,27,6.182,143.971,365.51,2,-9.99,9,-99,-9.9,1009.8,-9.9,28.69,2,33.864,2,38.6
Kaiyo,9714,92,1997,12,8,13,39,6.138,143.964,-9.99,9,376.47,2,-99,-9.9,1009.6,-9.9,28.7,2,33.883,2,38.6
Kaiyo,9714,93,1997,12,8,13,52,6.095,143.957,-9.99,9,374.7,2,-99,-9.9,1009.4,-9.9,28.63,2,33.878,2,38.5
Kaiyo,9714,94,1997,12,8,14,11,6.033,143.947,-9.99,9,371.37,2,-99,-9.9,1009.2,-9.9,28.64,2,33.855,2,38.5
Kaiyo,9714,95,1997,12,8,14,23,5.988,143.941,-9.99,9,373.88,2,-99,-9.9,1009.1,-9.9,28.69,2,33.84,2,38.6
Kaiyo,9714,96,1997,12,8,14,57,5.873,143.924,364.95,2,-9.99,9,-99,-9.9,1008.6,-9.9,28.78,2,33.876,2,38.8
Kaiyo,9714,97,1997,12,8,15,9,5.83,143.918,-9.99,9,377.21,2,-99,-9.9,1008.5,-9.9,28.78,2,33.907,2,38.8
Kaiyo,9714,98,1997,12,8,15,22,5.786,143.911,-9.99,9,377.92,2,-99,-9.9,1008.3,-9.9,28.78,2,33.92,2,38.8
Kaiyo,9714,99,1997,12,8,15,41,5.724,143.902,-9.99,9,375.01,2,-99,-9.9,1008.2,-9.9,28.77,2,33.933,2,38.8
Kaiyo,9714,100,1997,12,8,15,53,5.682,143.895,-9.99,9,377.28,2,-99,-9.9,1008,-9.9,28.81,2,33.92,2,38.9
Kaiyo,9714,101,1997,12,8,16,27,5.57,143.878,364.62,2,-9.99,9,-99,-9.9,1007.8,-9.9,28.72,2,33.907,2,38.7
Kaiyo,9714,102,1997,12,8,16,39,5.528,143.871,-9.99,9,374.41,2,-99,-9.9,1007.6,-9.9,28.73,2,33.892,2,38.7
Kaiyo,9714,103,1997,12,8,16,52,5.484,143.865,-9.99,9,374.05,2,-99,-9.9,1007.6,-9.9,28.81,2,33.856,2,38.9
Kaiyo,9714,104,1997,12,8,17,11,5.421,143.858,-9.99,9,372.26,2,-99,-9.9,1007.6,-9.9,28.8,2,33.836,2,38.9
Kaiyo,9714,105,1997,12,8,17,23,5.378,143.853,-9.99,9,372.34,2,-99,-9.9,1007.8,-9.9,28.81,2,33.844,2,38.9
Kaiyo,9714,106,1997,12,8,17,57,5.263,143.842,364.67,2,-9.99,9,-99,-9.9,1007.8,-9.9,28.81,2,33.847,2,38.9
Kaiyo,9714,107,1997,12,8,18,9,5.219,143.838,-9.99,9,370.67,2,-99,-9.9,1007.7,-9.9,28.85,2,33.837,2,39
Kaiyo,9714,108,1997,12,8,18,22,5.175,143.836,-9.99,9,369.29,2,-99,-9.9,1007.6,-9.9,28.83,2,33.857,2,38.9
Kaiyo,9714,109,1997,12,8,18,41,5.112,143.831,-9.99,9,370.48,2,-99,-9.9,1007.7,-9.9,28.84,2,33.802,2,38.9
Kaiyo,9714,110,1997,12,8,18,53,5.067,143.826,-9.99,9,372.98,2,-99,-9.9,1007.7,-9.9,28.85,2,33.811,2,39
Kaiyo,9714,111,1997,12,8,19,27,4.954,143.816,364.89,2,-9.99,9,-99,-9.9,1007.7,-9.9,28.9,2,33.825,2,39.1
Kaiyo,9714,112,1997,12,8,19,39,4.91,143.814,-9.99,9,375.36,2,-99,-9.9,1008,-9.9,28.92,2,33.835,2,39.1
Kaiyo,9714,113,1997,12,8,19,52,4.866,143.812,-9.99,9,378.58,2,-99,-9.9,1008.1,-9.9,28.89,2,33.841,2,39.1
Kaiyo,9714,114,1997,12,8,20,11,4.803,143.806,-9.99,9,376.84,2,-99,-9.9,1008.5,-9.9,28.86,2,33.819,2,39
Kaiyo,9714,115,1997,12,8,20,23,4.758,143.803,-9.99,9,380.92,2,-99,-9.9,1008.7,-9.9,28.89,2,33.863,2,39.1
Kaiyo,9714,116,1997,12,8,20,57,4.639,143.796,364.92,2,-9.99,9,-99,-9.9,1009.3,-9.9,29.06,2,33.843,2,39.4
Kaiyo,9714,117,1997,12,8,21,9,4.594,143.794,-9.99,9,384.02,2,-99,-9.9,1009.5,-9.9,29.04,2,33.97,2,39.4
Kaiyo,9714,118,1997,12,8,21,22,4.548,143.793,-9.99,9,386.44,2,-99,-9.9,1009.7,-9.9,29.08,2,34.038,2,39.5
Kaiyo,9714,119,1997,12,8,21,41,4.484,143.784,-9.99,9,386.24,2,-99,-9.9,1009.8,-9.9,29.1,2,34.057,2,39.5
Kaiyo,9714,120,1997,12,8,21,53,4.44,143.778,-9.99,9,384.33,2,-99,-9.9,1009.9,-9.9,29.1,2,34.034,2,39.5
Kaiyo,9714,121,1997,12,8,22,27,4.323,143.762,365.39,2,-9.99,9,-99,-9.9,1010.3,-9.9,29.06,2,34.081,2,39.4
Kaiyo,9714,122,1997,12,8,22,39,4.279,143.756,-9.99,9,384.63,2,-99,-9.9,1010.4,-9.9,29.02,2,34.105,2,39.3
Kaiyo,9714,123,1997,12,8,22,52,4.234,143.75,-9.99,9,386.03,2,-99,-9.9,1010.4,-9.9,29.04,2,34.093,2,39.4
Kaiyo,9714,124,1997,12,8,23,11,4.169,143.74,-9.99,9,384.77,2,-99,-9.9,1010.4,-9.9,29.02,2,34.079,2,39.4
Kaiyo,9714,125,1997,12,8,23,23,4.124,143.733,-9.99,9,385.83,2,-99,-9.9,1010.2,-9.9,28.98,2,34.085,2,39.3
Kaiyo,9714,126,1997,12,8,22,27,4.323,143.762,365.46,2,-9.99,9,-99,-9.9,1010.3,-9.9,29.06,2,34.081,2,39.4
Kaiyo,9714,127,1997,12,8,22,39,4.279,143.756,-9.99,9,384.78,2,-99,-9.9,1010.4,-9.9,29.02,2,34.105,2,39.3
Kaiyo,9714,128,1997,12,8,22,52,4.234,143.75,-9.99,9,386.27,2,-99,-9.9,1010.4,-9.9,29.04,2,34.093,2,39.4
Kaiyo,9714,129,1997,12,8,23,11,4.169,143.74,-9.99,9,385.14,2,-99,-9.9,1010.4,-9.9,29.02,2,34.079,2,39.4
Kaiyo,9714,130,1997,12,8,23,23,4.124,143.733,-9.99,9,386.29,2,-99,-9.9,1010.2,-9.9,28.98,2,34.085,2,39.3
Kaiyo,9714,131,1997,12,9,6,27,2.707,143.59,363.97,2,-9.99,9,-99,-9.9,1008.5,-9.9,29.31,2,34.252,2,40
Kaiyo,9714,132,1997,12,9,6,39,2.665,143.588,-9.99,9,390.21,2,-99,-9.9,1008.6,-9.9,29.37,2,34.266,2,40.1
Kaiyo,9714,133,1997,12,9,6,52,2.623,143.586,-9.99,9,392.18,2,-99,-9.9,1008.6,-9.9,29.44,2,34.261,2,40.3
Kaiyo,9714,134,1997,12,9,7,11,2.562,143.582,-9.99,9,384.44,2,-99,-9.9,1008.7,-9.9,29.37,2,34.274,2,40.1
Kaiyo,9714,135,1997,12,9,7,23,2.519,143.58,-9.99,9,388.52,2,-99,-9.9,1008.7,-9.9,29.38,2,34.188,2,40.2
Kaiyo,9714,136,1997,12,9,7,57,2.408,143.575,364.03,2,-9.99,9,-99,-9.9,1008.7,-9.9,29.41,2,34.165,2,40.2
Kaiyo,9714,137,1997,12,9,8,9,2.372,143.574,-9.99,9,386.17,2,-99,-9.9,1008.8,-9.9,29.4,2,-9.999,9,40.2
Kaiyo,9714,138,1997,12,9,8,22,2.336,143.572,-9.99,9,390.04,2,-99,-9.9,1008.8,-9.9,29.4,2,-9.999,9,40.2
Kaiyo,9714,139,1997,12,9,8,41,2.285,143.566,-9.99,9,387.09,2,-99,-9.9,1009.2,-9.9,29.42,2,-9.999,9,40.3
Kaiyo,9714,140,1997,12,9,8,53,2.248,143.562,-9.99,9,391.06,2,-99,-9.9,1009.4,-9.9,29.46,2,-9.999,9,40.4
Kaiyo,9714,141,1997,12,9,9,27,2.153,143.55,364.04,2,-9.99,9,-99,-9.9,1009.9,-9.9,29.43,2,-9.999,9,40.3
Kaiyo,9714,142,1997,12,9,9,39,2.117,143.544,-9.99,9,388.38,2,-99,-9.9,1009.9,-9.9,29.45,2,-9.999,9,40.3
Kaiyo,9714,143,1997,12,9,9,52,2.081,143.54,-9.99,9,390.02,2,-99,-9.9,1009.9,-9.9,29.42,2,-9.999,9,40.3
Kaiyo,9714,144,1997,12,9,10,11,2.03,143.533,-9.99,9,388.86,2,-99,-9.9,1010.2,-9.9,29.42,2,34.549,2,40.3
Kaiyo,9714,145,1997,12,9,10,23,1.995,143.528,-9.99,9,395.98,2,-99,-9.9,1010.3,-9.9,29.45,2,34.653,2,40.3
Kaiyo,9714,146,1997,12,9,10,57,1.901,143.515,363.95,2,-9.99,9,-99,-9.9,1010.4,-9.9,29.4,2,34.671,2,40.2
Kaiyo,9714,147,1997,12,9,11,9,1.865,143.509,-9.99,9,387.81,2,-99,-9.9,1010.4,-9.9,29.43,2,34.664,2,40.3
Kaiyo,9714,148,1997,12,9,11,22,1.829,143.505,-9.99,9,388.99,2,-99,-9.9,1010.5,-9.9,29.41,2,34.674,2,40.2
Kaiyo,9714,149,1997,12,9,11,41,1.778,143.5,-9.99,9,388.81,2,-99,-9.9,1010.5,-9.9,29.46,2,34.674,2,40.3
Kaiyo,9714,150,1997,12,9,11,53,1.742,143.496,-9.99,9,389.34,2,-99,-9.9,1010.5,-9.9,29.46,2,34.674,2,40.3
Kaiyo,9714,151,1997,12,9,12,27,1.648,143.487,364.78,2,-9.99,9,-99,-9.9,1010.6,-9.9,29.39,2,34.715,2,40.2
Kaiyo,9714,152,1997,12,9,12,39,1.613,143.482,-9.99,9,390.07,2,-99,-9.9,1010.4,-9.9,29.41,2,34.709,2,40.2
Kaiyo,9714,153,1997,12,9,12,52,1.576,143.479,-9.99,9,390.67,2,-99,-9.9,1010.3,-9.9,29.4,2,34.718,2,40.2
Kaiyo,9714,154,1997,12,9,13,11,1.524,143.475,-9.99,9,392.08,2,-99,-9.9,1010.3,-9.9,29.41,2,34.719,2,40.2
Kaiyo,9714,155,1997,12,9,13,23,1.488,143.473,-9.99,9,393.53,2,-99,-9.9,1010.2,-9.9,29.42,2,34.718,2,40.3
Kaiyo,9714,156,1997,12,9,13,57,1.4,143.465,364.03,2,-9.99,9,-99,-9.9,1009.9,-9.9,29.25,2,34.713,2,39.9
Kaiyo,9714,157,1997,12,9,14,9,1.365,143.462,-9.99,9,391.7,2,-99,-9.9,1009.8,-9.9,29.26,2,34.702,2,39.9
Kaiyo,9714,158,1997,12,9,14,22,1.332,143.459,-9.99,9,393.55,2,-99,-9.9,1009.7,-9.9,29.33,2,34.693,2,40
Kaiyo,9714,159,1997,12,9,14,41,1.283,143.453,-9.99,9,394.5,2,-99,-9.9,1009.6,-9.9,29.35,2,34.703,2,40.1
Kaiyo,9714,160,1997,12,9,14,53,1.25,143.448,-9.99,9,396.07,2,-99,-9.9,1009.4,-9.9,29.39,2,34.706,2,40.2
Kaiyo,9714,161,1997,12,9,15,27,1.16,143.439,363.6,2,-9.99,9,-99,-9.9,1009.1,-9.9,29.35,2,34.716,2,40.1
Kaiyo,9714,162,1997,12,9,15,39,1.126,143.434,-9.99,9,395.75,2,-99,-9.9,1009,-9.9,29.37,2,34.714,2,40.1
Kaiyo,9714,163,1997,12,9,15,52,1.092,143.432,-9.99,9,395.95,2,-99,-9.9,1008.8,-9.9,29.33,2,34.718,2,40
Kaiyo,9714,164,1997,12,9,16,11,1.042,143.426,-9.99,9,392.54,2,-99,-9.9,1008.5,-9.9,29.24,2,34.708,2,39.8
Kaiyo,9714,165,1997,12,9,16,23,1.008,143.421,-9.99,9,395.07,2,-99,-9.9,1008.5,-9.9,29.41,2,34.691,2,40.2
Kaiyo,9714,166,1997,12,9,16,57,0.92,143.41,363.8,2,-9.99,9,-99,-9.9,1008.4,-9.9,29.36,2,34.678,2,40.1
Kaiyo,9714,167,1997,12,9,17,9,0.887,143.406,-9.99,9,394.97,2,-99,-9.9,1008.2,-9.9,29.46,2,34.67,2,40.3
Kaiyo,9714,168,1997,12,9,17,22,0.853,143.403,-9.99,9,394.3,2,-99,-9.9,1008.1,-9.9,29.43,2,34.684,2,40.3
Kaiyo,9714,169,1997,12,9,17,41,0.805,143.4,-9.99,9,394.21,2,-99,-9.9,1008.1,-9.9,29.32,2,34.693,2,40
Kaiyo,9714,170,1997,12,9,17,53,0.771,143.397,-9.99,9,394.74,2,-99,-9.9,1008,-9.9,29.24,2,34.693,2,39.8
Kaiyo,9714,171,1997,12,9,18,27,0.684,143.393,363.65,2,-9.99,9,-99,-9.9,1008,-9.9,29.36,2,34.69,2,40.1
Kaiyo,9714,172,1997,12,9,18,39,0.649,143.391,-9.99,9,395.59,2,-99,-9.9,1008.1,-9.9,29.3,2,34.692,2,40
Kaiyo,9714,173,1997,12,9,18,52,0.615,143.389,-9.99,9,395,2,-99,-9.9,1008.2,-9.9,29.36,2,34.691,2,40.1
Kaiyo,9714,174,1997,12,9,19,11,0.565,143.388,-9.99,9,396.25,2,-99,-9.9,1008.4,-9.9,29.33,2,34.692,2,40
Kaiyo,9714,175,1997,12,9,19,23,0.531,143.387,-9.99,9,395.67,2,-99,-9.9,1008.6,-9.9,29.29,2,34.694,2,40
Kaiyo,9714,176,1997,12,9,19,57,0.442,143.381,363.19,2,-9.99,9,-99,-9.9,1009.1,-9.9,29.28,2,34.681,2,39.9
Kaiyo,9714,177,1997,12,9,20,9,0.408,143.379,-9.99,9,393.42,2,-99,-9.9,1009.2,-9.9,29.26,2,34.678,2,39.9
Kaiyo,9714,178,1997,12,9,20,22,0.374,143.377,-9.99,9,395.29,2,-99,-9.9,1009.4,-9.9,29.3,2,34.674,2,40
Kaiyo,9714,179,1997,12,9,20,41,0.323,143.374,-9.99,9,394.57,2,-99,-9.9,1009.8,-9.9,29.37,2,34.662,2,40.1
Kaiyo,9714,180,1997,12,9,20,53,0.287,143.372,-9.99,9,393.77,2,-99,-9.9,1009.9,-9.9,29.27,2,34.667,2,39.9
Kaiyo,9714,181,1997,12,9,21,27,0.194,143.358,363.93,2,-9.99,9,-99,-9.9,1010.1,-9.9,29.32,2,34.656,2,40
Kaiyo,9714,182,1997,12,9,21,39,0.159,143.352,-9.99,9,394.6,2,-99,-9.9,1010.3,-9.9,29.37,2,34.657,2,40.1
Kaiyo,9714,183,1997,12,9,21,52,0.123,143.347,-9.99,9,395.75,2,-99,-9.9,1010.5,-9.9,29.45,2,34.66,2,40.3
Kaiyo,9714,184,1997,12,9,22,11,0.071,143.339,-9.99,9,397.59,2,-99,-9.9,1010.5,-9.9,29.52,2,34.668,2,40.5
Kaiyo,9714,185,1997,12,9,22,23,0.036,143.334,-9.99,9,396.99,2,-99,-9.9,1010.5,-9.9,29.55,2,34.673,2,40.6
Kaiyo,9714,186,1997,12,9,22,57,-0.001,143.333,363.95,2,-9.99,9,-99,-9.9,1010.7,-9.9,29.64,2,34.653,2,40.8
Kaiyo,9714,187,1997,12,9,23,9,-0.001,143.33,-9.99,9,397.04,2,-99,-9.9,1010.6,-9.9,29.65,2,34.648,2,40.8
Kaiyo,9714,188,1997,12,9,23,22,-0.001,143.328,-9.99,9,397.16,2,-99,-9.9,1010.5,-9.9,29.65,2,34.649,2,40.8
Kaiyo,9714,189,1997,12,9,23,41,-0.003,143.32,-9.99,9,396.92,2,-99,-9.9,1010.7,-9.9,29.68,2,34.648,2,40.9
Kaiyo,9714,190,1997,12,9,23,53,-0.003,143.316,-9.99,9,397.62,2,-99,-9.9,1010.7,-9.9,29.7,2,34.65,2,40.9
Kaiyo,9714,191,1997,12,10,0,27,-0.005,143.308,363.93,2,-9.99,9,-99,-9.9,1010.7,-9.9,29.7,2,34.652,2,40.9
Kaiyo,9714,192,1997,12,10,0,39,-0.006,143.305,-9.99,9,399.13,2,-99,-9.9,1010.7,-9.9,29.86,2,34.648,2,41.3
Kaiyo,9714,193,1997,12,10,0,52,-0.006,143.304,-9.99,9,398.56,2,-99,-9.9,1010.5,-9.9,29.72,2,34.658,2,41
Kaiyo,9714,194,1997,12,10,1,11,-0.006,143.297,-9.99,9,399.23,2,-99,-9.9,1010.4,-9.9,29.88,2,34.647,2,41.3
Kaiyo,9714,195,1997,12,10,1,23,-0.006,143.292,-9.99,9,400.13,2,-99,-9.9,1010.3,-9.9,29.88,2,34.651,2,41.3
Kaiyo,9714,196,1997,12,10,1,57,0.001,143.343,363.92,2,-9.99,9,-99,-9.9,1009.8,-9.9,29.69,2,34.656,2,40.9
Kaiyo,9714,197,1997,12,10,2,9,0.001,143.379,-9.99,9,397.47,2,-99,-9.9,1009.7,-9.9,29.69,2,34.653,2,40.9
Kaiyo,9714,198,1997,12,10,2,22,0,143.417,-9.99,9,397.93,2,-99,-9.9,1009.6,-9.9,29.76,2,34.648,2,41.1
Kaiyo,9714,199,1997,12,10,2,41,0,143.47,-9.99,9,399.51,2,-99,-9.9,1009.2,-9.9,29.79,2,34.647,2,41.1
Kaiyo,9714,200,1997,12,10,2,53,0.001,143.507,-9.99,9,399.59,2,-99,-9.9,1008.9,-9.9,29.81,2,34.653,2,41.2
Kaiyo,9714,201,1997,12,10,3,27,0.002,143.603,363.89,2,-9.99,9,-99,-9.9,1008.4,-9.9,29.79,2,-9.999,9,41.1
Kaiyo,9714,202,1997,12,10,3,39,0.002,143.64,-9.99,9,397.06,2,-99,-9.9,1008.1,-9.9,29.75,2,-9.999,9,41
Kaiyo,9714,203,1997,12,10,3,52,0.002,143.677,-9.99,9,398.81,2,-99,-9.9,1007.9,-9.9,29.7,2,-9.999,9,40.9
Kaiyo,9714,204,1997,12,10,4,11,0.001,143.73,-9.99,9,398.77,2,-99,-9.9,1007.6,-9.9,29.7,2,-9.999,9,40.9
Kaiyo,9714,205,1997,12,10,4,23,0,143.767,-9.99,9,399.98,2,-99,-9.9,1007.3,-9.9,29.84,2,-9.999,9,41.2
Kaiyo,9714,206,1997,12,10,4,57,-0.002,143.862,364.09,2,-9.99,9,-99,-9.9,1006.9,-9.9,29.78,2,-9.999,9,41.1
Kaiyo,9714,207,1997,12,10,5,9,-0.003,143.897,-9.99,9,399.91,2,-99,-9.9,1006.8,-9.9,29.9,2,-9.999,9,41.4
Kaiyo,9714,208,1997,12,10,5,22,-0.002,143.933,-9.99,9,397.96,2,-99,-9.9,1006.8,-9.9,29.74,2,-9.999,9,41
Kaiyo,9714,209,1997,12,10,5,41,-0.002,143.985,-9.99,9,399.17,2,-99,-9.9,1006.8,-9.9,29.84,2,-9.999,9,41.2
Kaiyo,9714,210,1997,12,10,5,53,-0.002,144.022,-9.99,9,397.85,2,-99,-9.9,1006.8,-9.9,29.81,2,-9.999,9,41.2
Kaiyo,9714,211,1997,12,10,6,27,0.003,144.12,364.02,2,-9.99,9,-99,-9.9,1006.7,-9.9,29.84,2,-9.999,9,41.2
Kaiyo,9714,212,1997,12,10,6,39,0.004,144.156,-9.99,9,396.44,2,-99,-9.9,1006.8,-9.9,29.7,2,-9.999,9,40.9
Kaiyo,9714,213,1997,12,10,6,52,0.004,144.195,-9.99,9,396.5,2,-99,-9.9,1006.9,-9.9,29.99,2,-9.999,9,41.6
Kaiyo,9714,214,1997,12,10,7,11,0.004,144.249,-9.99,9,403.66,2,-99,-9.9,1007.1,-9.9,29.96,2,-9.999,9,41.5
Kaiyo,9714,215,1997,12,10,7,23,0.004,144.286,-9.99,9,402.26,2,-99,-9.9,1007.5,-9.9,29.99,2,-9.999,9,41.6
Kaiyo,9714,216,1997,12,10,7,57,0.004,144.383,363.83,2,-9.99,9,-99,-9.9,1007.8,-9.9,29.89,2,-9.999,9,41.4
Kaiyo,9714,217,1997,12,10,8,9,0.004,144.419,-9.99,9,400.91,2,-99,-9.9,1007.8,-9.9,29.98,2,-9.999,9,41.6
Kaiyo,9714,218,1997,12,10,8,22,0.004,144.455,-9.99,9,401.97,2,-99,-9.9,1008,-9.9,29.91,2,-9.999,9,41.4
Kaiyo,9714,219,1997,12,10,8,41,0.006,144.507,-9.99,9,402.93,2,-99,-9.9,1008.3,-9.9,29.95,2,34.625,2,41.5
Kaiyo,9714,220,1997,12,10,8,53,0.005,144.544,-9.99,9,401.07,2,-99,-9.9,1008.4,-9.9,29.88,2,34.672,2,41.3
Kaiyo,9714,221,1997,12,10,9,27,0.003,144.639,363.74,2,-9.99,9,-99,-9.9,1008.8,-9.9,29.91,2,34.696,2,41.4
Kaiyo,9714,222,1997,12,10,9,39,0.002,144.675,-9.99,9,400.43,2,-99,-9.9,1009,-9.9,29.91,2,34.696,2,41.4
Kaiyo,9714,223,1997,12,10,9,52,0.001,144.711,-9.99,9,396.21,2,-99,-9.9,1009.1,-9.9,29.82,2,34.709,2,41.2